K0JSC-13 Weather Reports


time (UTC)temp
F
wind
direction
speed
knots
gust
knots
rain 1hr
in
rain 24hr
in
rain mn
in
humidity
%
barometer
mb
20260508020004 63 0 0.0 0.0 0.00 0.00 0.00 41 992.3
20260508015617 64 0 0.0 0.0 0.00 0.00 0.00 36 992.3
20260508014503 66 84 0.9 4.3 0.00 0.00 0.00 33 992.2
20260508013603 68 83 2.6 6.1 0.00 0.00 0.00 31 992.2
20260508012703 69 84 2.6 6.1 0.00 0.00 0.00 30 992.1
20260508011803 69 82 5.2 11.3 0.00 0.00 0.00 28 991.9
20260508010903 70 83 6.1 11.3 0.00 0.00 0.00 25 991.8
20260508010004 71 87 5.2 9.6 0.00 0.00 0.00 27 991.8
20260508005403 71 86 4.3 11.3 0.00 0.00 0.00 25 992.0
20260508004503 72 86 7.8 12.2 0.00 0.00 0.00 26 992.1
20260508003603 72 81 6.1 10.4 0.00 0.00 0.00 24 992.1
20260508002703 72 78 2.6 8.7 0.00 0.00 0.00 27 992.2
20260508001803 71 87 1.7 7.0 0.00 0.00 0.00 28 992.3
20260508001117 70 88 1.7 6.1 0.00 0.00 0.00 28 992.3
20260508000219 70 86 2.6 6.1 0.00 0.00 0.00 30 992.5
20260507235403 70 85 2.6 6.1 0.00 0.00 0.00 27 992.5
20260507234504 70 81 1.7 6.1 0.00 0.00 0.00 28 992.5
20260507233603 71 84 4.3 7.8 0.00 0.00 0.00 28 992.6
20260507232703 71 86 5.2 11.3 0.00 0.00 0.00 28 992.6
20260507231803 71 84 1.7 7.8 0.00 0.00 0.00 29 992.8
20260507230903 72 78 4.3 11.3 0.00 0.00 0.00 30 992.8
20260507230218 71 79 5.2 13.0 0.00 0.00 0.00 28 992.9
20260507225403 71 79 3.5 11.3 0.00 0.00 0.00 30 992.9
20260507224504 72 77 6.1 13.9 0.00 0.00 0.00 24 992.9
20260507223603 72 76 7.8 13.0 0.00 0.00 0.00 27 993.0
20260507222704 73 77 6.1 9.6 0.00 0.01 0.00 28 993.1
20260507221803 73 76 7.0 13.0 0.00 0.02 0.00 26 993.2
20260507220903 74 78 7.0 13.9 0.00 0.03 0.00 27 993.3
20260507220217 74 75 5.2 9.6 0.00 0.04 0.00 27 993.4
20260507215617 74 78 3.5 9.6 0.00 0.04 0.00 29 993.5
20260507214503 73 76 3.5 7.8 0.00 0.06 0.00 25 993.7
20260507213818 73 67 2.6 7.8 0.00 0.08 0.00 26 993.9
20260507212704 72 79 5.2 11.3 0.00 0.12 0.00 27 994.2
20260507211803 73 72 2.6 9.6 0.00 0.14 0.00 22 994.5
20260507210903 73 59 0.9 5.2 0.00 0.17 0.00 29 994.8
20260507210003 71 74 4.3 11.3 0.00 0.20 0.00 24 995.2
20260507205403 72 75 2.6 11.3 0.00 0.22 0.00 24 995.3
20260507204718 72 70 2.6 8.7 0.00 0.23 0.00 24 995.5
20260507203603 71 77 1.7 11.3 0.00 0.25 0.00 24 995.9
20260507202704 71 96 0.9 3.5 0.00 0.27 0.00 29 996.1
20260507201803 70 84 0.9 4.3 0.00 0.29 0.00 27 996.5
20260507201117 70 69 0.9 3.5 0.00 0.31 0.00 25 996.9
20260507200003 69 87 1.7 10.4 0.00 0.33 0.00 27 997.3
20260507195403 68 89 1.7 7.8 0.00 0.34 0.00 27 997.4
20260507194503 68 83 2.6 10.4 0.00 0.36 0.00 34 997.7
20260507193817 68 73 2.6 7.8 0.00 0.38 0.00 31 997.8
20260507192703 67 77 4.3 11.3 0.00 0.41 0.00 28 998.1
20260507192018 66 81 5.2 13.9 0.00 0.43 0.00 32 998.2
20260507190904 67 73 5.2 11.3 0.00 0.47 0.00 30 998.4
20260507190004 66 74 4.3 11.3 0.00 0.48 0.00 29 998.6
20260507185403 66 81 6.1 13.0 0.00 0.49 0.00 33 998.8
20260507184504 66 73 3.5 12.2 0.00 0.50 0.00 31 999.1
20260507183603 65 76 5.2 12.2 0.00 0.51 0.00 34 999.3
20260507182918 65 72 4.3 15.6 0.00 0.52 0.00 32 999.5
20260507181803 64 75 5.2 13.9 0.00 0.52 0.00 31 999.8
20260507180904 64 76 5.2 11.3 0.00 0.52 0.00 32 1000.1
20260507180003 63 69 4.3 13.9 0.00 0.52 0.00 28 1000.3
20260507175403 63 73 5.2 13.0 0.00 0.52 0.00 31 1000.4
20260507174503 62 77 7.0 13.0 0.00 0.52 0.00 33 1000.5
20260507173818 62 81 8.7 13.0 0.00 0.52 0.00 37 1000.7
20260507172703 61 83 8.7 13.9 0.00 0.52 0.00 38 1001.0
20260507171803 60 83 9.6 13.9 0.00 0.52 0.00 42 1001.4
20260507170903 59 84 10.4 16.5 0.00 0.52 0.00 43 1001.7
20260507170004 59 83 9.6 16.5 0.00 0.52 0.00 42 1001.9
20260507165617 58 85 8.7 16.5 0.00 0.52 0.00 45 1002.1
20260507164503 57 87 8.7 13.9 0.00 0.52 0.00 47 1002.3
20260507163603 57 88 9.6 14.8 0.00 0.52 0.00 44 1002.5
20260507162703 56 84 8.7 13.0 0.00 0.52 0.00 46 1002.7
20260507161803 56 87 7.0 13.0 0.00 0.52 0.00 45 1002.7
20260507160903 55 85 7.8 13.9 0.00 0.52 0.00 47 1003.0
20260507160003 54 80 9.6 15.6 0.00 0.52 0.00 45 1003.2
20260507155403 54 80 10.4 15.6 0.00 0.52 0.00 47 1003.2
20260507154504 53 82 12.2 17.4 0.00 0.52 0.00 46 1003.3
20260507153603 52 85 11.3 17.4 0.00 0.52 0.00 51 1003.4
20260507152703 51 23 11.3 18.2 0.00 0.53 0.00 48 1003.5
20260507151803 53 286 8.7 17.4 0.00 0.53 0.00 47 1003.8
20260507151118 52 286 8.7 16.5 0.00 0.53 0.00 45 1003.9
20260507150003 51 284 7.0 14.8 0.00 0.53 0.00 47 1004.2
20260507145403 50 284 7.8 15.6 0.00 0.53 0.00 48 1004.1
20260507144503 49 286 8.7 20.0 0.00 0.53 0.00 50 1004.3
20260507143603 48 280 8.7 20.9 0.00 0.53 0.00 51 1004.2
20260507142704 48 278 7.8 19.1 0.00 0.53 0.00 50 1004.2
20260507141803 47 284 7.0 16.5 0.00 0.53 0.00 51 1004.3
20260507140903 47 283 7.8 15.6 0.00 0.53 0.00 51 1004.5
20260507140004 46 285 6.1 14.8 0.00 0.53 0.00 52 1004.5
20260507135618 46 287 6.1 13.0 0.00 0.53 0.00 54 1004.6
20260507134718 45 283 6.1 13.0 0.00 0.53 0.00 53 1004.7
20260507133604 44 291 4.3 10.4 0.00 0.53 0.00 56 1004.9
20260507132703 43 283 6.1 12.2 0.00 0.53 0.00 56 1005.0
20260507131803 42 289 4.3 12.2 0.00 0.53 0.00 58 1004.9
20260507131117 41 279 6.1 13.0 0.00 0.53 0.00 59 1004.8
20260507130004 40 286 7.0 13.9 0.00 0.53 0.00 60 1004.9
20260507125403 40 289 7.0 13.9 0.00 0.53 0.00 61 1005.1
20260507124503 39 294 6.1 13.9 0.00 0.53 0.00 62 1005.1
20260507123603 39 313 7.0 13.9 0.00 0.53 0.00 63 1005.3
20260507122705 38 319 6.1 9.6 0.00 0.53 0.00 64 1005.6
20260507122017 38 324 6.1 10.4 0.00 0.53 0.00 65 1005.3
20260507120903 38 324 6.1 10.4 0.00 0.54 0.00 66 1005.3
20260507120004 38 322 6.1 11.3 0.00 0.54 0.00 65 1005.3
20260507115403 38 314 7.8 13.0 0.00 0.54 0.00 65 1005.3
20260507114503 38 305 7.8 13.9 0.00 0.54 0.00 65 1005.2
20260507113603 38 309 8.7 16.5 0.00 0.54 0.00 65 1005.2
20260507112703 38 301 8.7 15.6 0.00 0.55 0.00 66 1005.2
20260507111803 38 310 8.7 14.8 0.00 0.55 0.00 65 1005.2
20260507110903 38 311 9.6 16.5 0.00 0.56 0.00 66 1005.2
20260507110005 38 304 9.6 14.8 0.00 0.56 0.00 68 1005.2
20260507105403 38 301 10.4 15.6 0.00 0.56 0.00 69 1005.2
20260507104503 38 303 8.7 19.1 0.00 0.56 0.00 69 1005.2
20260507103603 38 304 7.8 14.8 0.00 0.56 0.00 70 1005.2
20260507102917 38 307 6.1 14.8 0.00 0.56 0.00 70 1005.2
20260507102016 38 307 7.8 13.9 0.00 0.56 0.00 70 1005.5
20260507100904 38 304 7.0 13.0 0.00 0.56 0.00 70 1005.4
20260507100003 38 307 8.7 13.0 0.00 0.56 0.00 70 1005.5
20260507095617 38 306 7.8 13.0 0.00 0.56 0.00 71 1005.5
20260507094503 38 308 5.2 12.2 0.00 0.56 0.00 70 1005.2
20260507093817 38 312 5.2 9.6 0.00 0.56 0.00 70 1005.4
20260507092703 38 310 5.2 12.2 0.00 0.56 0.00 69 1005.5
20260507091803 39 297 5.2 13.9 0.00 0.56 0.00 69 1005.6
20260507091117 39 294 6.1 13.9 0.00 0.56 0.00 68 1005.4
20260507090004 39 294 7.0 13.9 0.00 0.56 0.00 68 1005.6
20260507085404 39 292 6.1 13.9 0.00 0.56 0.00 68 1005.4
20260507084503 39 287 7.0 15.6 0.00 0.56 0.00 68 1005.3
20260507083603 39 283 6.1 13.0 0.00 0.56 0.00 68 1005.3
20260507082703 38 287 4.3 12.2 0.00 0.56 0.00 69 1005.1
20260507081803 38 294 4.3 10.4 0.00 0.56 0.00 72 1005.1
20260507080903 38 298 3.5 8.7 0.00 0.56 0.00 73 1005.1
20260507080004 38 299 2.6 7.0 0.00 0.56 0.00 72 1005.2
20260507075403 38 301 2.6 7.0 0.00 0.56 0.00 72 1005.3
20260507074503 39 285 2.6 10.4 0.00 0.56 0.00 72 1005.3
20260507073604 38 292 2.6 8.7 0.00 0.56 0.00 72 1005.3
20260507072703 38 301 3.5 9.6 0.00 0.56 0.00 72 1005.3
20260507071803 39 309 5.2 12.2 0.00 0.57 0.00 73 1005.3
20260507070903 39 310 7.8 14.8 0.00 0.57 0.00 73 1005.4
20260507070007 38 308 7.8 13.9 0.00 0.57 0.00 74 1005.4
20260507065403 39 310 7.8 13.9 0.00 0.57 0.00 74 1005.4
20260507064504 38 309 7.8 12.2 0.00 0.57 0.00 75 1005.5
20260507063603 38 308 7.8 13.9 0.00 0.57 0.00 76 1005.5
20260507062703 37 317 6.1 11.3 0.00 0.57 0.00 80 1005.5
20260507061803 35 322 3.5 10.4 0.00 0.57 0.00 83 1005.5
20260507060903 35 324 4.3 8.7 0.00 0.57 0.00 84 1005.4
20260507060219 34 321 2.6 7.8 0.00 0.57 0.00 85 1005.4
20260507055403 34 326 2.6 4.3 0.00 0.58 0.57 85 1005.3
20260507054503 35 331 2.6 5.2 0.00 0.58 0.57 85 1005.2
20260507053818 35 328 3.5 5.2 0.00 0.58 0.57 85 1005.2
20260507052703 35 325 3.5 7.8 0.00 0.58 0.57 86 1005.2
20260507052016 34 327 3.5 7.0 0.00 0.58 0.57 87 1005.2
20260507051118 34 313 2.6 7.0 0.00 0.58 0.57 87 1005.2
20260507050217 34 325 1.7 4.3 0.00 0.58 0.57 87 1005.2
20260507045617 34 327 1.7 4.3 0.00 0.59 0.57 87 1005.3
20260507044718 34 326 1.7 4.3 0.00 0.59 0.57 86 1005.2
20260507043817 35 316 2.6 3.5 0.00 0.59 0.57 86 1005.2
20260507042703 35 315 2.6 3.5 0.00 0.59 0.57 86 1005.1
20260507041803 35 315 2.6 4.3 0.00 0.59 0.57 87 1005.1
20260507040904 35 305 3.5 7.0 0.00 0.59 0.57 87 1005.0
20260507040217 35 304 2.6 7.0 0.00 0.59 0.57 88 1005.0
20260507035403 34 315 1.7 6.1 0.00 0.60 0.57 87 1005.0
20260507034503 34 333 0.9 3.5 0.00 0.60 0.57 87 1005.0
20260507033603 35 335 0.9 3.5 0.00 0.60 0.57 86 1005.0
20260507032916 35 333 0.0 1.7 0.00 0.60 0.57 85 1004.9
20260507031803 35 333 0.0 1.7 0.00 0.60 0.57 84 1004.8
20260507030903 36 333 0.0 1.7 0.00 0.60 0.57 83 1004.7
20260507030005 36 333 0.9 2.6 0.00 0.61 0.57 83 1004.6
20260507025403 37 333 1.7 3.5 0.00 0.61 0.57 82 1004.6
20260507024503 37 333 1.7 3.5 0.00 0.61 0.57 81 1004.5
20260507023603 38 334 0.9 2.6 0.00 0.61 0.57 80 1004.5
20260507022703 38 82 0.0 0.9 0.00 0.61 0.57 81 1004.4
20260507021803 38 75 0.0 1.7 0.00 0.61 0.57 79 1004.3
20260507020903 39 74 0.0 0.9 0.00 0.61 0.57 77 1004.4